Starlink 30953

operational
NORAD ID: 58491 Int'l Des: 2023-186 Owner: SPXS Country: US Constellation: starlink
LEOCIRCULAR

Starlink 30953について

説明を読み込み中...

リアルタイム位置

3D地球を読み込み中...

次回通過

高度履歴

Altitude vs Time

uPlot chart will show altitude changes over time

軌道要素

1 58491U 23186U 25259.13045878 .00015516 00000-0 57154-3 0 9999
2 58491 43.0016 173.3147 0001151 280.6947 79.3775 15.27615670101193
Epoch: Sep 16, 2025 • Age: 14 hours

現在のステータス

高度 485.7 km
速度 7.63 km/s
衛星直下点 38.84°N, 30°W
打ち上げ日 Dec 3, 2023
運用期間 1.7 years
タイプ internet

技術仕様

分類 Payload
質量 730.00 kg
乾燥質量 700.00 kg
総質量 730.00 kg
長さ 0.30 m
直径 4.10 m
スパン 29.00 m
形状 Box + pan
製造者 SPXS
バスタイプ Starlink V2M
フェーズステータス In Orbit
所有者/国 SPXS/US

大規模コンステレーション

Loading constellations...